x

Central Caribbean - 210 Nm Sse Of Kingston, Jamaica (42058) Wave Buoy

3:50pm - Mon 31st Aug 2015 All times are EST. -5 hours from GMT.

  • Sig Wave height 7.2ft
  • Swell Direction
  • Peak Period 8s
  • Average Period 5s
  • Wind
    20mph, 25mph gusts
  • Sea Temp 84°f
  • 空気 Temp 84°f
  • Sea Pressure 1011.6mb
  • Central Caribbean - 210 Nm Sse Of Kingston, Jamaica
  • Central Caribbean - 210 Nm Sse Of Kingston, Jamaica

More Historic Weather Station data

Upgrade to MSW Pro to gain access to the past 30 days of data for over 8000 Wavebouys and Weather Stations around the globe.

Join Pro

Comparision Forecast

View Surf forecast
   
Mon 08/31 3:50pm 7ft 8s 5s 20 25 mph 1011.6mb 84f 84f
2:50pm 7ft 8s 5s 20 25 mph 1011.9mb 84f 84f
1:50pm 6.5ft 8s 5s 20 25 mph 1012.3mb 84f 84f
12:50pm 6.5ft 8s 5s 25 27 mph 1012.9mb 84f 84f
11:50am 6.5ft 8s 5s 22 27 mph 1013.2mb 84f 84f
10:50am 6.5ft 8s 5s 22 27 mph 1013.7mb 84f 84f
9:50am 7ft 8s 5s 22 27 mph 1013.5mb 84f 84f
8:50am 6.5ft 8s 5s 22 27 mph 1013.2mb 84f 84f
7:50am 6.5ft 7s 5s 25 29 mph 1012.6mb 84f 84f
6:50am 6ft 8s 5s 25 29 mph 1011.9mb 84f 84f
5:50am 6.5ft 7s 5s 22 25 mph 1011.7mb 84f 84f
4:50am 6ft 8s 5s 22 27 mph 1011.8mb 84f 84f
3:50am 7ft 8s 5s 22 29 mph 1011.4mb 84f 84f
2:50am 7ft 7s 5s 22 29 mph 1011.5mb 84f 84f
1:50am 6.5ft 7s 5s 22 27 mph 1011.9mb 84f 84f
12:50am 7ft 8s 5s 25 29 mph 1012.2mb 84f 84f
Sun 08/30 11:50pm 7ft 8s 6s 22 27 mph 1012.8mb 84f 84f
10:50pm 6.5ft 8s 5s 22 25 mph 1012.7mb 84f 84f
9:50pm 7ft 7s 5s 25 27 mph 1012.3mb 84f 84f
8:50pm 7ft 7s 5s 22 27 mph 1012mb 84f 84f
7:50pm 7ft 8s 6s 20 22 mph 1011.6mb 84f 84f
6:50pm 7.5ft 8s 6s 22 25 mph 1010.7mb 84f 84f
5:50pm 7ft 8s 5s 22 27 mph 1010.3mb 84f 84f
4:50pm 8.5ft 8s 6s 20 22 mph 1010.5mb 84f 84f
3:50pm 8.5ft 8s 6s 22 29 mph 1010.9mb 84f 84f
2:50pm 9ft 8s 6s 22 29 mph 1011.1mb 84f 84f
1:50pm 8ft 8s 6s 22 25 mph 1011.4mb 84f 84f
12:50pm 9ft 8s 6s 25 29 mph 1011.9mb 84f 84f
11:50am 9ft 8s 6s 20 25 mph 1012.3mb 84f 84f
10:50am 8.5ft 8s 6s 25 29 mph 1012.4mb 84f 85f
9:50am 9ft 8s 6s 25 31 mph 1012.3mb 84f 85f
8:50am 8.5ft 7s 6s 25 31 mph 1012.3mb 84f 84f
7:50am 10ft 8s 6s 25 31 mph 1011.6mb 84f 84f
6:50am 10ft 8s 6s 27 31 mph 1010.9mb 84f 84f
5:50am 9ft 7s 6s 29 34 mph 1010.3mb 84f 84f
4:50am 9ft 7s 6s 29 31 mph 1009.6mb 84f 84f
3:50am 9ft 8s 6s 25 31 mph 1009.5mb 84f 84f
2:50am 10ft 8s 6s 25 31 mph 1009.6mb 84f 84f
1:50am 9.5ft 9s 6s 27 31 mph 1009.9mb 84f 84f
12:50am 10ft 8s 6s 25 31 mph 1010.7mb 84f 84f
Sat 08/29 11:50pm 10ft 7s 6s 25 31 mph 1011.2mb 84f 84f
10:50pm 10ft 8s 6s 25 34 mph 1011.5mb 84f 84f
9:50pm 10ft 9s 6s 25 31 mph 1011.3mb 84f 85f
8:50pm 10ft 9s 6s 29 36 mph 1010.5mb 84f 85f
7:50pm 10ft 9s 6s 27 36 mph 1010.1mb 84f 85f
6:50pm 10.5ft 9s 6s 27 34 mph 1009.4mb 84f 84f
5:50pm 9.5ft 9s 6s 25 29 mph 1009.2mb 84f 85f
4:50pm 10ft 10s 6s 27 31 mph 1009.1mb 84f 85f
3:50pm 11ft 8s 6s 27 34 mph 1008.9mb 84f 85f
2:50pm 10ft 8s 6s 27 31 mph 1009.3mb 84f 85f
1:50pm 10ft 8s 6s 25 34 mph 1010.2mb 84f 85f
12:50pm 10ft 10s 6s 27 31 mph 1010.9mb 84f 85f
11:50am 8.5ft 11s 6s 27 31 mph 1010.9mb 84f 85f
10:50am 8ft 7s 6s 25 29 mph 1011.4mb 84f 85f
9:50am 8ft 11s 6s 27 31 mph 1012mb 84f 85f
8:50am 7.5ft 11s 6s 25 31 mph 1012.1mb 84f 85f
7:50am 6ft 12s 5s 25 29 mph 1011.8mb 84f 85f
6:50am 5ft 5s 5s 22 27 mph 1011.2mb 84f 85f
5:50am 5ft 5s 5s 22 27 mph 1010.6mb 84f 84f
4:50am 4.5ft 8s 5s 22 27 mph 1010.8mb 84f 83f
3:50am 4ft 7s 4s 20 25 mph 1010.3mb 84f 84f
2:50am 4ft 8s 5s 16 20 mph 1010.3mb 84f 84f
1:50am 4ft 9s 5s 16 18 mph 1010.5mb 84f 84f
12:50am 4ft 9s 5s 16 20 mph 1010.7mb 84f 84f
Fri 08/28 11:50pm 4ft 7s 5s 18 22 mph 1011.3mb 84f 84f
10:50pm 4ft 8s 5s 18 20 mph 1011.5mb 84f 84f
9:50pm 4ft 8s 5s 18 20 mph 1011.1mb 85f 84f
8:50pm 3.5ft 7s 5s 16 18 mph 1010.6mb 85f 84f
7:50pm 3.5ft 8s 5s 13 16 mph 1009.6mb 85f 84f
6:50pm 3.5ft 8s 5s 13 16 mph 1009.2mb 85f 84f
5:50pm 3.5ft 7s 5s 16 18 mph 1008.8mb 85f 84f
4:50pm 3.5ft 7s 5s 16 18 mph 1009mb 85f 85f
3:50pm 3.5ft 8s 5s 13 16 mph 1009.2mb 85f 84f
2:50pm 3.5ft 7s 5s 13 16 mph 1009.4mb 85f 84f
1:50pm 3.5ft 7s 5s 16 18 mph 1009.5mb 85f 84f
12:50pm 4ft 7s 5s 13 16 mph 1010.2mb 85f 84f
11:50am 3.5ft 8s 5s 16 18 mph 1010.9mb 84f 84f
10:50am 3.5ft 6s 5s 16 18 mph 1011.3mb 84f 84f
9:50am 3.5ft 6s 5s 16 18 mph 1011.6mb 84f 84f
8:50am 3.5ft 8s 5s 16 18 mph 1011.3mb 84f 84f
7:50am 4ft 7s 5s 16 20 mph 1011.3mb 84f 83f
6:50am 3.5ft 8s 5s 16 18 mph 1010.9mb 84f 84f
5:50am 4ft 7s 5s 13 16 mph 1010.6mb 84f 83f
4:50am 4ft 7s 5s 16 18 mph 1010.3mb 84f 84f
3:50am 4ft 6s 5s 11 16 mph 1010.6mb 84f 83f
2:50am 4ft 7s 5s 13 18 mph 1010.7mb 84f 83f
1:50am 4ft 6s 5s 13 18 mph 1011mb 84f 83f
12:50am 4ft 7s 5s 13 16 mph 1011.4mb 84f 84f
Thu 08/27 11:50pm 4ft 6s 5s 18 20 mph 1012mb 84f 84f
10:50pm 4ft 6s 5s 18 22 mph 1012.2mb 84f 84f